Location: Bryzozowice
(50.3667°N, 18.9667°E)
Time: 12:43:04
(UTC+00:00)

ATLAS CENTAUR R/B - Pass Details

Date: 24 January 2020
Orbit: 228 x 6381 km, 57.3° (Epoch: 21 February)

Event Time Altitude Azimuth Distance (km) Brightness Sun altitude
Rises 16:47:09 0° 259° (W) 3,204 7.8 -13.3°
Reaches altitude 10° 16:48:48 10° 263° (W) 2,610 6.7 -13.5°
Maximum altitude 16:54:59 67° 346° (NNW) 1,745 4.3 -14.5°
Enters shadow 17:08:22 18° 66° (ENE) 5,643 6.3 -16.6°
